FALCON 9 DEB (53872 NORAD) Tracking and Keplerian Element Data

This shows tracking and keplerian element data for the satellite.

Feedback or suggestion? Click here.




ElementValue
Catalog53872
NameFALCON 9 DEB
Epoch Orbit215
Epoch Day268.57301249
Epoch Year2022
RAAN226.239
Inclination53.2178
Eccentricity0.006708
Argument of Perigee70.1252
Mean Anonmoly290.6993
Mean Motion16.02886019
Decay Rate0.00686977
L11 53872U 22114BG 22268.57301249 .00686977 23442-3 83398-3 0 9991
L22 53872 53.2178 226.2390 0067080 70.1252 290.6993 16.02886019 2152



Live tracking and technical data element details for FALCON 9 DEB (NORAD 53872). FALCON 9 DEB can be tracked NOW for your location showing map with azimuth and elevation plus other details from your city location.







IsCatalogInMostPopularTable: catalog: 53872, numindb: -1

Insert: records affected: 1


GetName: 53872 FALCON 9 DEB

Hit Count: inserted at: Thu, 08 Dec 2022 10:22:42 GMT